CW4489 Marathon FL US current weather conditions

sailwx.info

Wind from 328 at 0 knots gusting 9

Air temperature -17.8° C
Dewpoint -17.8° C

Last reported at 2016-Feb-09 23:50 UTC.
Time now 2016-Feb-10 00:37 UTC

Location: N 24°44' W 081°02'.
View on Google Maps.

See reports from other nearby stations

  
Tides and Currents Weather Stations Pressure Air Temp Water Temp Dewpoint Dewpoint Depression Visibility Wind Speed Wind Dir Waves Ship Positions
date/time (UTC)wind fromknots sea level pressurealtimeterstation pressurevisibilityair tempwater tempwave heightnotes
2016-Feb-09 23:50 328 0 gusting 9 -17.8
2016-Feb-09 23:40 277 5 gusting 6 -17.8
2016-Feb-09 23:20 308 1 gusting 8 -17.8
2016-Feb-09 23:10 327 1 gusting 7 -17.8
2016-Feb-09 23:00 321 2 gusting 9 -17.8
2016-Feb-09 22:30 300 7 gusting 8 -17.8
2016-Feb-09 22:00 321 2 gusting 8 -17.8
2016-Feb-09 21:50 317 4 gusting 7 -17.8
2016-Feb-09 21:40 302 2 gusting 8 -17.8
2016-Feb-09 21:10 297 -17.8
2016-Feb-09 20:30 280 8 gusting 8 -17.8
2016-Feb-09 20:20 304 4 gusting 9 -17.8
2016-Feb-09 20:10 317 6 gusting 13 -17.8
2016-Feb-09 20:00 313 7 gusting 11 -17.8
2016-Feb-09 19:40 284 7 gusting 8 -17.8
2016-Feb-09 19:30 302 5 gusting 11 -17.8
2016-Feb-09 19:00 332 5 gusting 13 -17.8
2016-Feb-09 18:40 275 6 gusting 10 -17.8
2016-Feb-09 18:30 300 3 gusting 10 -17.8
2016-Feb-09 18:20 283 7 gusting 8 -17.8
2016-Feb-09 17:49 307 3 gusting 10 -17.8
2016-Feb-09 16:50 341 4 gusting 10 -17.8
2016-Feb-09 16:30 319 6 gusting 8 -17.8
2016-Feb-09 16:20 339 5 gusting 8 -17.8
2016-Feb-09 16:10 328 3 gusting 9 -17.8
2016-Feb-09 15:50 340 4 gusting 9 -17.8
2016-Feb-09 15:49 340 4 gusting 9 -17.8
2016-Feb-09 15:30 311 4 gusting 6 -17.8
2016-Feb-09 15:10 360 4 gusting 8 -17.8
2016-Feb-09 14:40 336 7 gusting 9 -17.8
2016-Feb-09 14:20 344 8 gusting 10 -17.8
2016-Feb-09 14:10 335 6 gusting 13 -17.8
2016-Feb-09 14:00 326 3 gusting 7 -17.8
2016-Feb-09 13:10 331 8 gusting 10 -17.8
2016-Feb-09 12:50 331 6 gusting 11 -17.8
2016-Feb-09 12:40 324 4 gusting 9 -17.8
2016-Feb-09 12:20 316 4 gusting 9 -17.8
2016-Feb-09 12:10 355 6 gusting 9 -17.8
2016-Feb-09 12:00 303 7 gusting 12 -17.8
2016-Feb-09 11:50 281 3 gusting 11 -17.8
2016-Feb-09 11:30 005 6 gusting 11 -17.8
2016-Feb-09 10:30 317 5 gusting 7 -17.8
2016-Feb-09 10:20 300 1 gusting 8 -17.8
2016-Feb-09 10:00 288 1 gusting 6 -17.8
2016-Feb-09 09:50 251 4 gusting 7 -17.8
2016-Feb-09 09:40 326 3 gusting 6 -17.8
2016-Feb-09 09:30 271 2 gusting 6 -17.8
2016-Feb-09 09:10 292 3 gusting 7 -17.8
2016-Feb-09 08:40 257 4 gusting 8 -17.8
2016-Feb-09 08:20 275 4 gusting 8 -17.8
2016-Feb-09 08:10 282 3 gusting 8 -17.8
2016-Feb-09 08:00 242 3 gusting 8 -17.8
2016-Feb-09 07:50 228 2 gusting 8 -17.8
2016-Feb-09 07:30 243 3 gusting 11 -17.8
2016-Feb-09 07:20 240 8 gusting 8 -17.8
2016-Feb-09 07:00 260 6 gusting 8 -17.8
2016-Feb-09 06:40 271 6 gusting 6 -17.8
2016-Feb-09 06:30 300 2 gusting 8 -17.8
2016-Feb-09 05:40 255 6 gusting 8 -17.8
2016-Feb-09 05:30 254 0 gusting 8 -17.8
2016-Feb-09 05:20 234 2 gusting 6 -17.8
2016-Feb-09 05:10 265 5 gusting 6 -17.8
2016-Feb-09 05:00 234 4 gusting 6 -17.8
2016-Feb-09 04:40 221 3 gusting 5 -17.8
2016-Feb-09 04:30 215 2 gusting 5 -17.8
2016-Feb-09 04:20 274 2 gusting 6 -17.8
2016-Feb-09 04:10 260 1 gusting 4 -17.8
2016-Feb-09 03:50 228 2 gusting 4 -17.8
2016-Feb-09 03:40 268 2 gusting 5 -17.8
2016-Feb-09 03:00 225 2 gusting 6 -17.8
2016-Feb-09 02:50 263 2 gusting 5 -17.8
2016-Feb-09 02:40 239 2 gusting 5 -17.8
2016-Feb-09 02:20 265 1 gusting 4 -17.8
2016-Feb-09 02:10 257 2 gusting 4 -17.8
2016-Feb-09 01:50 265 1 gusting 5 -17.8
2016-Feb-09 01:40 257 0 gusting 3 -17.8
2016-Feb-09 01:10 262 2 gusting 2 -17.8
2016-Feb-09 01:00 225 1 gusting 3 -17.8
2016-Feb-09 00:40 272 1 gusting 2 -17.8
2016-Feb-09 00:30 263 0 gusting 2 -17.8
2016-Feb-09 00:20 244 -17.8
2016-Feb-08 23:30 259 2 gusting 2 -17.8
2016-Feb-08 23:20 247 0 gusting 2 -17.8
2016-Feb-08 23:10 225 1 gusting 2 -17.8
2016-Feb-08 23:00 213 1 gusting 3 -17.8
2016-Feb-08 22:50 205 1 gusting 3 -17.8
2016-Feb-08 22:20 223 4 gusting 4 -17.8
2016-Feb-08 22:10 183 0 gusting 3 -17.8
2016-Feb-08 22:00 223 -17.8
2016-Feb-08 21:50 202 -17.8
2016-Feb-08 21:30 224 2 gusting 5 -17.8
2016-Feb-08 21:20 169 1 gusting 2 -17.8
2016-Feb-08 21:10 173 2 gusting 3 -17.8
2016-Feb-08 21:00 176 1 gusting 2 -17.8
2016-Feb-08 20:00 163 1 gusting 2 -17.8
2016-Feb-08 19:50 167 -17.8
2016-Feb-08 19:40 141 -17.8
2016-Feb-08 19:00 140 2 gusting 2 -17.8
2016-Feb-08 18:50 144 0 gusting 2 -17.8
2016-Feb-08 18:40 114 -17.8
2016-Feb-08 18:10 078 0 gusting 3 -17.8
2016-Feb-08 18:00 055 1 gusting 3 -17.8
2016-Feb-08 17:40 072 0 gusting 2 -17.8
2016-Feb-08 17:30 044 0 gusting 3 -17.8
2016-Feb-08 17:10 083 -17.8
2016-Feb-08 16:40 045 2 gusting 4 -17.8
2016-Feb-08 16:30 023 1 gusting 6 -17.8
2016-Feb-08 16:00 015 1 gusting 6 -17.8
2016-Feb-08 15:50 040 2 gusting 6 -17.8
2016-Feb-08 15:40 341 5 gusting 5 -17.8
2016-Feb-08 15:30 027 -17.8
2016-Feb-08 15:20 053 3 gusting 6 -17.8
2016-Feb-08 15:10 040 1 gusting 6 -17.8
2016-Feb-08 15:00 038 2 gusting 6 -17.8
2016-Feb-08 14:20 355 4 gusting 6 -17.8
2016-Feb-08 14:00 022 2 gusting 7 -17.8
2016-Feb-08 13:20 059 1 gusting 6 -17.8
2016-Feb-08 13:10 034 3 gusting 7 -17.8
2016-Feb-08 13:00 031 3 gusting 6 -17.8
2016-Feb-08 12:30 348 8 gusting 9 -17.8
2016-Feb-08 12:20 005 6 gusting 8 -17.8
2016-Feb-08 11:50 034 2 gusting 8 -17.8
2016-Feb-08 11:40 032 3 gusting 8 -17.8
2016-Feb-08 11:20 020 6 gusting 8 -17.8
2016-Feb-08 11:10 020 2 gusting 6 -17.8
2016-Feb-08 11:00 046 2 gusting 6 -17.8
2016-Feb-08 10:30 036 2 gusting 6 -17.8
2016-Feb-08 10:10 355 4 gusting 6 -17.8
2016-Feb-08 10:00 027 2 gusting 7 -17.8
2016-Feb-08 09:20 030 2 gusting 7 -17.8
2016-Feb-08 09:10 028 3 gusting 6 -17.8
2016-Feb-08 09:00 047 2 gusting 6 -17.8
2016-Feb-08 08:40 057 2 gusting 7 -17.8
2016-Feb-08 08:30 009 7 gusting 8 -17.8
2016-Feb-08 08:00 342 3 gusting 8 -17.8
2016-Feb-08 07:20 355 4 gusting 8 -17.8
2016-Feb-08 06:50 331 8 gusting 10 -17.8
2016-Feb-08 06:20 322 2 gusting 10 -17.8
2016-Feb-08 06:00 299 5 gusting 9 -17.8
2016-Feb-08 05:50 315 2 gusting 7 -17.8
2016-Feb-08 05:40 309 3 gusting 9 -17.8
2016-Feb-08 05:20 320 3 gusting 8 -17.8
2016-Feb-08 05:00 348 6 gusting 10 -17.8
2016-Feb-08 04:50 348 4 gusting 11 -17.8
2016-Feb-08 04:40 344 8 gusting 8 -17.8
2016-Feb-08 04:20 287 8 gusting 9 -17.8
2016-Feb-08 04:10 318 0 gusting 8 -17.8
2016-Feb-08 04:00 333 2 gusting 8 -17.8
2016-Feb-08 03:50 033 6 gusting 8 -17.8
2016-Feb-08 03:20 340 4 gusting 13 -17.8
2016-Feb-08 03:10 305 8 gusting 9 -17.8
2016-Feb-08 03:00 319 3 gusting 8 -17.8
2016-Feb-08 02:50 322 6 gusting 10 -17.8
2016-Feb-08 02:10 305 6 gusting 10 -17.8
2016-Feb-08 02:00 294 2 gusting 8 -17.8
2016-Feb-08 01:50 351 5 gusting 11 -17.8
2016-Feb-08 01:20 307 11 gusting 11 -17.8
2016-Feb-08 00:40 355 5 gusting 10 -17.8